TimeEDT,TemperatureF,Dew PointF,Humidity,Sea Level PressureIn,VisibilityMPH,Wind Direction,Wind SpeedMPH,Gust SpeedMPH,PrecipitationIn,Events,Conditions,WindDirDegrees,DateUTC
12:51 AM,53.1,39.0,59,29.81,10.0,NNW,4.6,-,N/A,,Clear,340,2013-10-23 04:51:00
1:51 AM,52.0,39.9,63,29.81,10.0,NNE,4.6,-,N/A,,Partly Cloudy,30,2013-10-23 05:51:00
2:51 AM,50.0,37.9,63,29.81,10.0,North,6.9,-,N/A,,Partly Cloudy,10,2013-10-23 06:51:00
3:51 AM,50.0,37.9,63,29.78,10.0,NNE,6.9,-,N/A,,Mostly Cloudy,20,2013-10-23 07:51:00
4:51 AM,50.0,36.0,59,29.78,10.0,North,6.9,-,N/A,,Mostly Cloudy,360,2013-10-23 08:51:00
5:51 AM,50.0,36.0,59,29.77,10.0,NNE,6.9,-,N/A,,Scattered Clouds,30,2013-10-23 09:51:00
6:51 AM,50.0,37.0,61,29.76,10.0,NE,8.1,-,N/A,,Mostly Cloudy,40,2013-10-23 10:51:00
7:51 AM,50.0,37.0,61,29.77,10.0,NE,4.6,-,N/A,,Overcast,40,2013-10-23 11:51:00
8:51 AM,51.1,37.9,61,29.78,10.0,NE,5.8,-,N/A,,Overcast,40,2013-10-23 12:51:00
9:51 AM,51.1,36.0,56,29.76,10.0,NE,8.1,-,N/A,,Mostly Cloudy,40,2013-10-23 13:51:00
10:51 AM,52.0,34.0,50,29.74,10.0,NE,9.2,-,N/A,,Overcast,50,2013-10-23 14:51:00
11:51 AM,53.1,36.0,52,29.70,10.0,NE,15.0,-,N/A,,Mostly Cloudy,50,2013-10-23 15:51:00
12:51 PM,53.1,33.1,47,29.66,10.0,NE,16.1,-,N/A,,Mostly Cloudy,40,2013-10-23 16:51:00
1:51 PM,52.0,32.0,47,29.64,10.0,NE,12.7,19.6,N/A,,Mostly Cloudy,50,2013-10-23 17:51:00
2:51 PM,51.1,30.9,46,29.63,10.0,NE,8.1,-,N/A,,Overcast,40,2013-10-23 18:51:00
3:51 PM,54.0,30.0,40,29.63,10.0,NNE,3.5,-,N/A,,Overcast,30,2013-10-23 19:51:00
4:51 PM,54.0,30.9,41,29.62,10.0,North,8.1,-,N/A,,Mostly Cloudy,360,2013-10-23 20:51:00
5:51 PM,52.0,35.1,53,29.65,10.0,NNW,12.7,-,N/A,,Overcast,340,2013-10-23 21:51:00
6:51 PM,52.0,33.1,49,29.68,10.0,NW,11.5,-,N/A,,Overcast,310,2013-10-23 22:51:00
7:51 PM,51.1,34.0,52,29.68,10.0,WNW,15.0,-,0.00,Rain,Light Rain,290,2013-10-23 23:51:00
8:51 PM,50.0,34.0,54,29.71,10.0,WNW,13.8,-,0.00,,Overcast,300,2013-10-24 00:51:00
9:51 PM,48.9,35.1,59,29.74,10.0,WNW,12.7,-,N/A,,Mostly Cloudy,300,2013-10-24 01:51:00
10:51 PM,48.0,34.0,58,29.75,10.0,WNW,13.8,-,N/A,,Mostly Cloudy,300,2013-10-24 02:51:00
11:51 PM,46.9,35.1,63,29.76,10.0,WNW,12.7,-,N/A,,Scattered Clouds,300,2013-10-24 03:51:00